| time (UTC) | temp F | wind direction | speed knots | gust knots | rain 1hr in | rain 24hr in | rain mn in | humidity % | barometer mb |
| 20260507212522 | 52 | 150 | 0.0 | 0.0 | 0.00 | 0.00 | 0.07 | 92 | 1013.5 |
| 20260507212041 | 52 | 150 | 0.0 | 0.0 | 0.00 | 0.00 | 0.07 | 92 | 1013.5 |
| 20260507211539 | 52 | 150 | 0.0 | 0.0 | 0.00 | 0.00 | 0.07 | 91 | 1013.5 |
| 20260507211027 | 52 | 150 | 0.0 | 0.0 | 0.00 | 0.00 | 0.07 | 91 | 1013.4 |
| 20260507210031 | 53 | 150 | 0.0 | 0.0 | 0.00 | 0.00 | 0.07 | 91 | 1013.4 |
| 20260507205536 | 53 | 150 | 0.0 | 0.0 | 0.00 | 0.00 | 0.07 | 91 | 1013.4 |
| 20260507205023 | 53 | 150 | 0.0 | 0.0 | 0.00 | 0.00 | 0.07 | 90 | 1013.3 |
| 20260507204039 | 53 | 150 | 0.0 | 0.0 | 0.00 | 0.00 | 0.07 | 90 | 1013.4 |
| 20260507203534 | 53 | 150 | 0.0 | 0.0 | 0.00 | 0.00 | 0.07 | 89 | 1013.4 |
| 20260507203034 | 53 | 150 | 0.0 | 0.0 | 0.00 | 0.00 | 0.07 | 89 | 1013.4 |
| 20260507202530 | 53 | 150 | 0.0 | 0.0 | 0.00 | 0.00 | 0.07 | 89 | 1013.4 |
| 20260507202037 | 53 | 150 | 0.0 | 0.0 | 0.00 | 0.00 | 0.07 | 89 | 1013.3 |
| 20260507201531 | 53 | 150 | 0.0 | 0.0 | 0.00 | 0.00 | 0.07 | 89 | 1013.2 |
| 20260507201047 | 54 | 150 | 0.0 | 0.0 | 0.00 | 0.00 | 0.07 | 87 | 1013.0 |
| 20260507200536 | 54 | 150 | 0.0 | 0.0 | 0.00 | 0.00 | 0.07 | 87 | 1013.0 |
| 20260507200039 | 54 | 150 | 0.0 | 0.0 | 0.00 | 0.00 | 0.07 | 87 | 1012.9 |
| 20260507195526 | 54 | 150 | 0.0 | 0.0 | 0.00 | 0.00 | 0.07 | 86 | 1012.8 |
| 20260507195026 | 54 | 150 | 0.0 | 0.0 | 0.00 | 0.00 | 0.07 | 86 | 1012.7 |
| 20260507194534 | 54 | 150 | 0.0 | 0.0 | 0.00 | 0.00 | 0.07 | 86 | 1012.7 |
| 20260507193532 | 55 | 150 | 0.0 | 0.0 | 0.00 | 0.00 | 0.07 | 86 | 1012.5 |
| 20260507193040 | 55 | 150 | 0.0 | 0.0 | 0.00 | 0.00 | 0.07 | 85 | 1012.5 |
| 20260507192529 | 55 | 150 | 0.0 | 0.0 | 0.00 | 0.00 | 0.07 | 84 | 1012.4 |
| 20260507192022 | 56 | 150 | 0.0 | 0.0 | 0.00 | 0.00 | 0.07 | 83 | 1012.3 |
| 20260507191532 | 56 | 150 | 0.0 | 0.0 | 0.00 | 0.00 | 0.07 | 82 | 1012.2 |
| 20260507191037 | 57 | 150 | 0.0 | 0.0 | 0.00 | 0.00 | 0.07 | 82 | 1012.1 |
| 20260507190538 | 57 | 150 | 0.0 | 0.0 | 0.00 | 0.00 | 0.07 | 80 | 1012.1 |
| 20260507190028 | 58 | 150 | 0.0 | 0.0 | 0.00 | 0.00 | 0.07 | 78 | 1012.1 |
| 20260507185530 | 58 | 150 | 0.0 | 0.0 | 0.00 | 0.00 | 0.07 | 77 | 1012.1 |
| 20260507185033 | 59 | 150 | 0.0 | 0.0 | 0.00 | 0.00 | 0.07 | 76 | 1012.0 |
| 20260507184522 | 60 | 150 | 0.0 | 0.0 | 0.00 | 0.00 | 0.07 | 73 | 1012.0 |
| 20260507184030 | 61 | 150 | 0.0 | 0.0 | 0.00 | 0.00 | 0.07 | 73 | 1011.9 |
| 20260507183531 | 62 | 150 | 0.0 | 0.0 | 0.00 | 0.00 | 0.07 | 70 | 1011.8 |
| 20260507182520 | 64 | 150 | 0.0 | 0.0 | 0.00 | 0.00 | 0.07 | 66 | 1011.8 |
| 20260507182023 | 65 | 150 | 0.0 | 0.0 | 0.00 | 0.00 | 0.07 | 59 | 1011.7 |
| 20260507181529 | 66 | 150 | 0.0 | 0.0 | 0.00 | 0.00 | 0.07 | 59 | 1011.7 |
| 20260507181035 | 67 | 150 | 0.0 | 0.0 | 0.00 | 0.00 | 0.07 | 58 | 1011.6 |
| 20260507180533 | 69 | 150 | 0.0 | 0.0 | 0.00 | 0.00 | 0.07 | 55 | 1011.7 |
| 20260507180037 | 69 | 150 | 0.0 | 0.0 | 0.00 | 0.00 | 0.07 | 53 | 1011.6 |
| 20260507175615 | 70 | 150 | 0.0 | 0.0 | 0.00 | 0.00 | 0.07 | 57 | 1011.5 |
| 20260507174540 | 70 | 150 | 0.0 | 0.0 | 0.00 | 0.00 | 0.07 | 48 | 1011.3 |
| 20260507174033 | 71 | 150 | 0.0 | 0.0 | 0.00 | 0.00 | 0.07 | 53 | 1011.3 |
| 20260507173037 | 71 | 150 | 0.0 | 0.0 | 0.00 | 0.00 | 0.07 | 50 | 1011.3 |
| 20260507172537 | 72 | 150 | 0.0 | 0.0 | 0.00 | 0.00 | 0.07 | 47 | 1011.3 |
| 20260507172023 | 72 | 150 | 0.0 | 0.0 | 0.00 | 0.00 | 0.07 | 50 | 1011.3 |
| 20260507171534 | 72 | 150 | 0.0 | 0.0 | 0.00 | 0.00 | 0.07 | 48 | 1011.3 |
| 20260507171025 | 72 | 150 | 0.0 | 0.0 | 0.00 | 0.00 | 0.07 | 52 | 1011.3 |
| 20260507170036 | 71 | 150 | 0.0 | 0.0 | 0.00 | 0.00 | 0.07 | 48 | 1011.2 |
| 20260507165532 | 71 | 150 | 0.0 | 0.0 | 0.00 | 0.00 | 0.07 | 45 | 1011.1 |
| 20260507165032 | 72 | 212 | 0.0 | 0.0 | 0.00 | 0.00 | 0.07 | 45 | 1011.0 |
| 20260507164526 | 72 | 277 | 0.0 | 0.0 | 0.00 | 0.00 | 0.07 | 49 | 1011.0 |
| 20260507164036 | 72 | 201 | 0.0 | 0.0 | 0.00 | 0.00 | 0.07 | 46 | 1011.0 |
| 20260507163536 | 72 | 201 | 0.0 | 0.0 | 0.00 | 0.00 | 0.07 | 46 | 1011.0 |
| 20260507163046 | 71 | 206 | 0.0 | 0.0 | 0.00 | 0.00 | 0.07 | 52 | 1011.0 |
| 20260507161532 | 71 | 239 | 0.0 | 0.0 | 0.00 | 0.00 | 0.07 | 48 | 1011.0 |
| 20260507160527 | 70 | 188 | 0.0 | 0.0 | 0.00 | 0.00 | 0.07 | 52 | 1011.0 |
| 20260507160025 | 70 | 144 | 0.0 | 0.0 | 0.00 | 0.00 | 0.07 | 50 | 1011.0 |
| 20260507155530 | 70 | 144 | 0.0 | 0.0 | 0.00 | 0.00 | 0.07 | 51 | 1011.1 |
| 20260507155053 | 70 | 94 | 0.9 | 0.0 | 0.00 | 0.00 | 0.07 | 49 | 1011.1 |
| 20260507154537 | 70 | 208 | 0.9 | 0.0 | 0.00 | 0.00 | 0.07 | 49 | 1011.1 |
| 20260507154033 | 70 | 341 | 0.9 | 0.0 | 0.00 | 0.00 | 0.07 | 52 | 1011.2 |
| 20260507153526 | 70 | 158 | 0.9 | 0.0 | 0.00 | 0.00 | 0.07 | 51 | 1011.1 |
| 20260507153027 | 70 | 355 | 0.9 | 0.0 | 0.00 | 0.00 | 0.07 | 50 | 1011.1 |
| 20260507152529 | 70 | 273 | 0.0 | 0.0 | 0.00 | 0.00 | 0.07 | 49 | 1011.1 |
| 20260507152035 | 70 | 269 | 0.0 | 0.0 | 0.00 | 0.00 | 0.07 | 53 | 1011.1 |
| 20260507151539 | 70 | 140 | 1.7 | 0.0 | 0.00 | 0.00 | 0.07 | 53 | 1011.0 |
| 20260507151029 | 70 | 313 | 1.7 | 0.0 | 0.00 | 0.00 | 0.07 | 50 | 1011.0 |
| 20260507150539 | 71 | 275 | 0.0 | 0.0 | 0.00 | 0.00 | 0.07 | 52 | 1011.1 |
| 20260507150024 | 71 | 198 | 0.0 | 0.0 | 0.00 | 0.00 | 0.07 | 52 | 1011.1 |
| 20260507145531 | 71 | 202 | 0.0 | 0.0 | 0.00 | 0.00 | 0.07 | 53 | 1011.1 |
| 20260507145031 | 71 | 188 | 0.9 | 0.0 | 0.00 | 0.00 | 0.07 | 53 | 1011.2 |
| 20260507144538 | 70 | 291 | 0.9 | 0.0 | 0.00 | 0.00 | 0.07 | 54 | 1011.2 |
| 20260507144029 | 70 | 263 | 0.0 | 0.0 | 0.00 | 0.00 | 0.07 | 52 | 1011.2 |
| 20260507143532 | 70 | 230 | 0.0 | 0.0 | 0.00 | 0.00 | 0.07 | 55 | 1011.2 |
| 20260507142540 | 70 | 157 | 0.9 | 0.0 | 0.00 | 0.00 | 0.07 | 50 | 1011.3 |
| 20260507142036 | 70 | 226 | 1.7 | 0.0 | 0.00 | 0.00 | 0.07 | 53 | 1011.3 |
| 20260507141523 | 70 | 274 | 1.7 | 0.0 | 0.00 | 0.00 | 0.07 | 52 | 1011.3 |
| 20260507140522 | 69 | 245 | 0.9 | 0.0 | 0.00 | 0.00 | 0.07 | 56 | 1011.4 |
| 20260507140030 | 69 | 284 | 1.7 | 0.0 | 0.00 | 0.00 | 0.07 | 54 | 1011.4 |
| 20260507135534 | 70 | 287 | 1.7 | 0.0 | 0.00 | 0.00 | 0.07 | 53 | 1011.5 |
| 20260507135034 | 70 | 240 | 2.6 | 0.0 | 0.00 | 0.00 | 0.07 | 51 | 1011.4 |
| 20260507134534 | 70 | 197 | 2.6 | 0.0 | 0.00 | 0.00 | 0.07 | 55 | 1011.5 |
| 20260507134042 | 70 | 228 | 2.6 | 0.0 | 0.00 | 0.00 | 0.07 | 52 | 1011.5 |
| 20260507133527 | 70 | 288 | 1.7 | 0.0 | 0.00 | 0.00 | 0.07 | 57 | 1011.6 |
| 20260507133037 | 70 | 292 | 0.9 | 0.0 | 0.00 | 0.00 | 0.07 | 54 | 1011.6 |
| 20260507132522 | 70 | 104 | 0.9 | 0.0 | 0.00 | 0.00 | 0.07 | 54 | 1011.7 |
| 20260507132032 | 69 | 306 | 0.9 | 0.0 | 0.00 | 0.00 | 0.07 | 57 | 1011.7 |
| 20260507131538 | 69 | 199 | 0.0 | 0.0 | 0.00 | 0.00 | 0.07 | 58 | 1011.8 |
| 20260507131056 | 69 | 216 | 0.0 | 0.0 | 0.00 | 0.00 | 0.07 | 59 | 1011.8 |
| 20260507130532 | 70 | 199 | 0.9 | 0.0 | 0.00 | 0.00 | 0.07 | 56 | 1011.8 |
| 20260507130023 | 70 | 221 | 1.7 | 0.0 | 0.00 | 0.00 | 0.07 | 52 | 1011.9 |
| 20260507125529 | 70 | 294 | 0.9 | 0.0 | 0.00 | 0.00 | 0.07 | 53 | 1011.8 |
| 20260507125033 | 70 | 205 | 0.9 | 0.0 | 0.00 | 0.00 | 0.07 | 56 | 1011.9 |
| 20260507124542 | 69 | 254 | 1.7 | 0.0 | 0.00 | 0.00 | 0.07 | 56 | 1011.9 |
| 20260507124030 | 69 | 280 | 0.9 | 0.0 | 0.00 | 0.00 | 0.07 | 56 | 1011.9 |
| 20260507123528 | 69 | 282 | 0.9 | 0.0 | 0.00 | 0.00 | 0.07 | 57 | 1011.9 |
| 20260507123031 | 69 | 248 | 0.9 | 0.0 | 0.00 | 0.00 | 0.07 | 60 | 1012.0 |
| 20260507122536 | 70 | 207 | 0.9 | 0.0 | 0.00 | 0.00 | 0.07 | 55 | 1012.1 |
| 20260507121527 | 70 | 205 | 0.0 | 0.0 | 0.00 | 0.00 | 0.07 | 55 | 1012.1 |
| 20260507121023 | 70 | 221 | 0.0 | 0.0 | 0.00 | 0.00 | 0.07 | 53 | 1012.1 |
| 20260507120530 | 69 | 155 | 0.9 | 0.0 | 0.00 | 0.00 | 0.07 | 56 | 1012.1 |
| 20260507120029 | 68 | 57 | 0.9 | 0.0 | 0.00 | 0.00 | 0.07 | 62 | 1012.1 |
| 20260507115556 | 68 | 240 | 1.7 | 0.0 | 0.00 | 0.00 | 0.07 | 62 | 1012.2 |
| 20260507115023 | 68 | 277 | 2.6 | 0.0 | 0.00 | 0.00 | 0.07 | 59 | 1012.2 |
| 20260507114019 | 67 | 298 | 2.6 | 0.0 | 0.00 | 0.00 | 0.07 | 61 | 1012.4 |
| 20260507113047 | 67 | 176 | 1.7 | 0.0 | 0.00 | 0.00 | 0.07 | 59 | 1012.4 |
| 20260507112521 | 68 | 264 | 1.7 | 0.0 | 0.00 | 0.00 | 0.07 | 59 | 1012.4 |
| 20260507112031 | 68 | 214 | 1.7 | 0.0 | 0.00 | 0.00 | 0.07 | 60 | 1012.5 |
| 20260507111544 | 68 | 195 | 0.0 | 0.0 | 0.00 | 0.00 | 0.07 | 62 | 1012.5 |
| 20260507110529 | 68 | 193 | 0.9 | 0.0 | 0.00 | 0.00 | 0.07 | 66 | 1012.6 |
| 20260507110030 | 68 | 292 | 0.9 | 0.0 | 0.00 | 0.00 | 0.07 | 63 | 1012.7 |
| 20260507105518 | 68 | 284 | 0.9 | 0.0 | 0.00 | 0.00 | 0.07 | 65 | 1012.8 |
| 20260507105041 | 68 | 197 | 0.9 | 0.0 | 0.00 | 0.00 | 0.07 | 61 | 1012.8 |
| 20260507104022 | 68 | 233 | 0.0 | 0.0 | 0.00 | 0.00 | 0.07 | 65 | 1012.8 |
| 20260507103032 | 66 | 287 | 0.0 | 0.0 | 0.00 | 0.00 | 0.07 | 65 | 1012.9 |
| 20260507101524 | 65 | 196 | 0.9 | 0.0 | 0.00 | 0.00 | 0.07 | 68 | 1012.9 |
| 20260507101028 | 65 | 202 | 0.9 | 0.0 | 0.00 | 0.00 | 0.07 | 65 | 1012.9 |
| 20260507100538 | 64 | 273 | 0.0 | 0.0 | 0.00 | 0.00 | 0.07 | 65 | 1013.1 |
| 20260507095526 | 65 | 272 | 0.9 | 0.0 | 0.00 | 0.00 | 0.07 | 64 | 1013.0 |
| 20260507094529 | 67 | 176 | 0.0 | 0.0 | 0.00 | 0.00 | 0.07 | 67 | 1013.1 |
| 20260507094031 | 67 | 231 | 0.0 | 0.0 | 0.00 | 0.00 | 0.07 | 67 | 1013.1 |
| 20260507093533 | 66 | 15 | 0.0 | 0.0 | 0.00 | 0.00 | 0.07 | 67 | 1013.0 |
| 20260507093020 | 66 | 198 | 0.0 | 0.0 | 0.00 | 0.00 | 0.07 | 70 | 1013.0 |
| 20260507092525 | 65 | 215 | 0.0 | 0.0 | 0.00 | 0.00 | 0.07 | 71 | 1013.0 |
| 20260507091535 | 64 | 292 | 0.0 | 0.0 | 0.00 | 0.00 | 0.07 | 74 | 1012.9 |
| 20260507090529 | 62 | 289 | 0.0 | 0.0 | 0.00 | 0.00 | 0.07 | 69 | 1013.0 |
| 20260507090036 | 63 | 290 | 0.0 | 0.0 | 0.00 | 0.00 | 0.07 | 70 | 1013.0 |
| 20260507085540 | 63 | 290 | 0.0 | 0.0 | 0.00 | 0.00 | 0.07 | 71 | 1012.9 |
| 20260507085020 | 63 | 264 | 0.0 | 0.0 | 0.00 | 0.00 | 0.07 | 67 | 1013.0 |
| 20260507084531 | 63 | 246 | 0.0 | 0.0 | 0.00 | 0.00 | 0.07 | 68 | 1012.9 |
| 20260507084037 | 63 | 304 | 0.0 | 0.0 | 0.00 | 0.00 | 0.07 | 69 | 1012.9 |
| 20260507083528 | 63 | 265 | 0.0 | 0.0 | 0.00 | 0.00 | 0.07 | 69 | 1012.9 |
| 20260507083021 | 63 | 280 | 0.0 | 0.0 | 0.00 | 0.00 | 0.07 | 70 | 1012.8 |
| 20260507082027 | 63 | 288 | 0.0 | 0.0 | 0.00 | 0.00 | 0.07 | 68 | 1012.8 |
| 20260507081529 | 63 | 15 | 0.0 | 0.0 | 0.00 | 0.00 | 0.07 | 70 | 1012.8 |
| 20260507081033 | 63 | 281 | 0.0 | 0.0 | 0.00 | 0.00 | 0.07 | 69 | 1012.7 |
| 20260507080023 | 61 | 294 | 0.0 | 0.0 | 0.00 | 0.00 | 0.07 | 78 | 1012.8 |
| 20260507075527 | 60 | 294 | 0.0 | 0.0 | 0.00 | 0.00 | 0.07 | 82 | 1012.8 |
| 20260507075030 | 59 | 294 | 0.0 | 0.0 | 0.00 | 0.00 | 0.07 | 85 | 1012.7 |
| 20260507074532 | 59 | 294 | 0.0 | 0.0 | 0.00 | 0.00 | 0.07 | 83 | 1012.6 |
| 20260507074027 | 59 | 294 | 0.0 | 0.0 | 0.00 | 0.00 | 0.07 | 84 | 1012.6 |
| 20260507073528 | 59 | 294 | 0.0 | 0.0 | 0.00 | 0.00 | 0.07 | 81 | 1012.6 |
| 20260507073025 | 59 | 294 | 0.0 | 0.0 | 0.00 | 0.00 | 0.07 | 81 | 1012.6 |
| 20260507072533 | 59 | 294 | 0.0 | 0.0 | 0.00 | 0.00 | 0.07 | 80 | 1012.5 |
| 20260507071019 | 59 | 331 | 0.0 | 0.0 | 0.00 | 0.00 | 0.07 | 84 | 1012.4 |
| 20260507070522 | 58 | 331 | 0.0 | 0.0 | 0.00 | 0.00 | 0.07 | 82 | 1012.4 |
| 20260507070027 | 57 | 331 | 0.0 | 0.0 | 0.00 | 0.00 | 0.07 | 84 | 1012.3 |
| 20260507065529 | 56 | 331 | 0.0 | 0.0 | 0.00 | 0.00 | 0.07 | 86 | 1012.3 |
| 20260507065025 | 56 | 331 | 0.0 | 0.0 | 0.00 | 0.00 | 0.07 | 87 | 1012.2 |
| 20260507064528 | 56 | 330 | 0.0 | 0.0 | 0.00 | 0.00 | 0.07 | 89 | 1012.2 |
| 20260507063527 | 54 | 330 | 0.0 | 0.0 | 0.00 | 0.00 | 0.07 | 90 | 1012.1 |
| 20260507063021 | 54 | 330 | 0.0 | 0.0 | 0.00 | 0.00 | 0.07 | 89 | 1012.2 |
| 20260507062526 | 54 | 330 | 0.0 | 0.0 | 0.00 | 0.00 | 0.07 | 90 | 1012.1 |
| 20260507062025 | 54 | 330 | 0.0 | 0.0 | 0.00 | 0.00 | 0.07 | 93 | 1012.0 |
| 20260507061527 | 53 | 330 | 0.0 | 0.0 | 0.00 | 0.00 | 0.07 | 93 | 1011.9 |
| 20260507061032 | 53 | 330 | 0.0 | 0.0 | 0.00 | 0.00 | 0.07 | 94 | 1011.9 |
| 20260507060542 | 52 | 336 | 0.0 | 0.0 | 0.00 | 0.00 | 0.07 | 94 | 1011.9 |
| 20260507060026 | 52 | 84 | 0.0 | 0.0 | 0.00 | 0.00 | 0.07 | 96 | 1011.8 |
| 20260507055534 | 51 | 84 | 0.0 | 0.0 | 0.00 | 0.00 | 0.07 | 96 | 1011.8 |
| 20260507054033 | 51 | 84 | 0.0 | 0.0 | 0.00 | 0.00 | 0.07 | 95 | 1011.7 |
| 20260507053033 | 51 | 84 | 0.0 | 0.0 | 0.00 | 0.00 | 0.07 | 95 | 1011.6 |
| 20260507052538 | 51 | 84 | 0.0 | 0.0 | 0.00 | 0.00 | 0.07 | 95 | 1011.6 |
| 20260507052022 | 51 | 84 | 0.0 | 0.0 | 0.00 | 0.00 | 0.07 | 95 | 1011.5 |
| 20260507051529 | 50 | 84 | 0.0 | 0.0 | 0.00 | 0.00 | 0.07 | 95 | 1011.4 |
| 20260507051028 | 50 | 34 | 0.0 | 0.0 | 0.00 | 0.00 | 0.07 | 96 | 1011.3 |
| 20260507050522 | 50 | 34 | 0.0 | 0.0 | 0.00 | 0.00 | 0.07 | 96 | 1011.3 |
| 20260507050033 | 50 | 22 | 0.0 | 0.0 | 0.00 | 0.00 | 0.07 | 96 | 1011.3 |
| 20260507045529 | 50 | 22 | 0.0 | 0.0 | 0.00 | 0.00 | 0.07 | 95 | 1011.3 |
| 20260507045024 | 50 | 22 | 0.0 | 0.0 | 0.00 | 0.00 | 0.07 | 95 | 1011.2 |
| 20260507044023 | 50 | 22 | 0.0 | 0.0 | 0.00 | 0.00 | 0.07 | 95 | 1011.1 |
| 20260507043529 | 50 | 22 | 0.0 | 0.0 | 0.00 | 0.00 | 0.07 | 95 | 1011.1 |
| 20260507043036 | 50 | 22 | 0.0 | 0.0 | 0.00 | 0.00 | 0.07 | 94 | 1011.0 |
| 20260507042528 | 50 | 22 | 0.0 | 0.0 | 0.00 | 0.00 | 0.07 | 94 | 1011.0 |
| 20260507042029 | 50 | 22 | 0.0 | 0.0 | 0.00 | 0.00 | 0.07 | 94 | 1010.9 |
| 20260507041522 | 50 | 22 | 0.0 | 0.0 | 0.00 | 0.00 | 0.07 | 93 | 1010.9 |
| 20260507041032 | 50 | 22 | 0.0 | 0.0 | 0.00 | 0.00 | 0.07 | 94 | 1010.8 |
| 20260507040520 | 50 | 22 | 0.0 | 0.0 | 0.00 | 0.00 | 0.07 | 93 | 1010.8 |
| 20260507040035 | 50 | 22 | 0.0 | 0.0 | 0.00 | 0.00 | 0.07 | 92 | 1010.8 |
| 20260507035521 | 50 | 22 | 0.0 | 0.0 | 0.00 | 0.00 | 0.07 | 92 | 1010.8 |
| 20260507035038 | 50 | 22 | 0.0 | 0.0 | 0.00 | 0.00 | 0.07 | 92 | 1010.8 |
| 20260507034533 | 50 | 355 | 0.0 | 0.0 | 0.00 | 0.00 | 0.07 | 92 | 1010.7 |
| 20260507034023 | 51 | 5 | 0.0 | 0.0 | 0.00 | 0.00 | 0.07 | 92 | 1010.8 |
| 20260507033535 | 51 | 355 | 0.0 | 0.0 | 0.00 | 0.00 | 0.07 | 92 | 1010.7 |
| 20260507033022 | 51 | 355 | 0.0 | 0.0 | 0.00 | 0.00 | 0.07 | 91 | 1010.8 |
| 20260507032037 | 52 | 327 | 0.0 | 0.0 | 0.00 | 0.00 | 0.06 | 89 | 1010.7 |
| 20260507031529 | 51 | 335 | 0.0 | 0.0 | 0.00 | 0.00 | 0.03 | 86 | 1010.8 |
| 20260507031028 | 51 | 341 | 0.0 | 0.0 | 0.00 | 0.00 | 0.02 | 88 | 1010.8 |
| 20260507030520 | 51 | 333 | 0.0 | 0.0 | 0.00 | 0.00 | 0.02 | 88 | 1010.7 |
| 20260507030035 | 51 | 338 | 0.0 | 0.0 | 0.00 | 0.00 | 0.02 | 89 | 1010.8 |
| 20260507025029 | 51 | 327 | 0.0 | 0.0 | 0.00 | 0.00 | 0.02 | 91 | 1010.7 |
| 20260507024023 | 51 | 343 | 0.0 | 0.0 | 0.00 | 0.00 | 0.02 | 92 | 1010.8 |
| 20260507023537 | 51 | 343 | 0.0 | 0.0 | 0.00 | 0.00 | 0.02 | 92 | 1010.8 |
| 20260507023027 | 51 | 340 | 0.0 | 0.0 | 0.00 | 0.00 | 0.02 | 92 | 1010.8 |
| 20260507022535 | 50 | 21 | 0.0 | 0.0 | 0.00 | 0.00 | 0.02 | 92 | 1010.8 |
| 20260507022022 | 50 | 94 | 0.0 | 0.0 | 0.00 | 0.00 | 0.02 | 93 | 1010.8 |
| 20260507021529 | 50 | 94 | 0.0 | 0.0 | 0.00 | 0.00 | 0.02 | 93 | 1010.9 |
| 20260507021034 | 50 | 94 | 0.0 | 0.0 | 0.00 | 0.00 | 0.02 | 93 | 1010.9 |
| 20260507020520 | 50 | 101 | 0.0 | 0.0 | 0.00 | 0.00 | 0.02 | 93 | 1011.0 |
| 20260507020025 | 50 | 101 | 0.0 | 0.0 | 0.00 | 0.00 | 0.02 | 94 | 1010.9 |
| 20260507015539 | 50 | 301 | 0.0 | 0.0 | 0.00 | 0.00 | 0.02 | 94 | 1010.9 |
| 20260507015032 | 50 | 300 | 0.0 | 0.0 | 0.00 | 0.00 | 0.02 | 95 | 1010.8 |
| 20260507014519 | 50 | 300 | 0.0 | 0.0 | 0.00 | 0.00 | 0.02 | 95 | 1010.7 |
| 20260507013526 | 51 | 12 | 0.0 | 0.0 | 0.00 | 0.00 | 0.02 | 94 | 1010.6 |
| 20260507013029 | 51 | 12 | 0.0 | 0.0 | 0.00 | 0.00 | 0.02 | 94 | 1010.5 |
| 20260507012523 | 51 | 12 | 0.0 | 0.0 | 0.00 | 0.00 | 0.02 | 94 | 1010.5 |
| 20260507012030 | 51 | 12 | 0.0 | 0.0 | 0.00 | 0.00 | 0.02 | 93 | 1010.5 |
| 20260507011521 | 51 | 12 | 0.0 | 0.0 | 0.00 | 0.00 | 0.02 | 93 | 1010.4 |
| 20260507011026 | 51 | 12 | 0.0 | 0.0 | 0.00 | 0.00 | 0.02 | 93 | 1010.4 |
| 20260507010554 | 51 | 12 | 0.0 | 0.0 | 0.00 | 0.00 | 0.02 | 93 | 1010.4 |
| 20260507010027 | 52 | 12 | 0.0 | 0.0 | 0.00 | 0.00 | 0.02 | 92 | 1010.3 |
| 20260507005529 | 52 | 12 | 0.0 | 0.0 | 0.00 | 0.00 | 0.02 | 92 | 1010.2 |
| 20260507004536 | 52 | 12 | 0.0 | 0.0 | 0.00 | 0.00 | 0.02 | 91 | 1010.3 |
| 20260507004037 | 52 | 12 | 0.0 | 0.0 | 0.00 | 0.00 | 0.02 | 90 | 1010.2 |
| 20260507003041 | 52 | 12 | 0.0 | 0.0 | 0.00 | 0.00 | 0.01 | 90 | 1010.2 |
| 20260507002527 | 52 | 12 | 0.0 | 0.0 | 0.00 | 0.00 | 0.01 | 91 | 1010.3 |
| 20260507002026 | 53 | 12 | 0.0 | 0.0 | 0.00 | 0.00 | 0.01 | 89 | 1010.3 |
| 20260507001531 | 53 | 12 | 0.0 | 0.0 | 0.00 | 0.00 | 0.00 | 88 | 1010.2 |
| 20260507001026 | 52 | 12 | 0.0 | 0.0 | 0.00 | 0.00 | 0.00 | 86 | 1010.3 |
| 20260507000531 | 52 | 12 | 0.0 | 0.0 | 0.00 | 0.00 | 0.00 | 87 | 1010.3 |
| 20260507000030 | 52 | 342 | 0.0 | 0.0 | 0.00 | 0.00 | 0.00 | 89 | 1010.3 |
| 20260506235035 | 51 | 303 | 0.0 | 0.0 | 0.00 | 0.00 | 0.00 | 93 | 1010.4 |
| 20260506234527 | 51 | 310 | 0.0 | 0.0 | 0.00 | 0.00 | 0.00 | 94 | 1010.4 |
| 20260506234026 | 51 | 293 | 0.0 | 0.0 | 0.00 | 0.00 | 0.00 | 94 | 1010.4 |
| 20260506233537 | 51 | 293 | 0.0 | 0.0 | 0.00 | 0.00 | 0.00 | 94 | 1010.4 |
| 20260506232525 | 52 | 293 | 0.0 | 0.0 | 0.00 | 0.00 | 0.00 | 94 | 1010.4 |
| 20260506231528 | 52 | 293 | 0.0 | 0.0 | 0.00 | 0.00 | 0.00 | 93 | 1010.3 |
| 20260506231033 | 52 | 293 | 0.0 | 0.0 | 0.00 | 0.00 | 0.00 | 93 | 1010.3 |
| 20260506230537 | 52 | 293 | 0.0 | 0.0 | 0.00 | 0.00 | 0.00 | 92 | 1010.3 |
| 20260506230028 | 52 | 294 | 0.0 | 0.0 | 0.00 | 0.00 | 0.00 | 92 | 1010.2 |
| 20260506225020 | 52 | 293 | 0.0 | 0.0 | 0.00 | 0.00 | 0.00 | 91 | 1010.1 |
| 20260506223544 | 52 | 293 | 0.0 | 0.0 | 0.00 | 0.00 | 0.00 | 91 | 1010.1 |
| 20260506223026 | 52 | 317 | 0.0 | 0.0 | 0.00 | 0.00 | 0.00 | 92 | 1010.1 |
| 20260506222538 | 51 | 40 | 0.0 | 0.0 | 0.00 | 0.00 | 0.00 | 93 | 1010.1 |
| 20260506221524 | 51 | 9 | 0.0 | 0.0 | 0.00 | 0.00 | 0.00 | 95 | 1010.1 |
| 20260506221033 | 51 | 12 | 0.0 | 0.0 | 0.00 | 0.00 | 0.00 | 95 | 1010.1 |
| 20260506220526 | 51 | 12 | 0.0 | 0.0 | 0.00 | 0.00 | 0.00 | 95 | 1010.1 |
| 20260506215538 | 51 | 12 | 0.0 | 0.0 | 0.00 | 0.00 | 1.50 | 95 | 1010.0 |
| 20260506215028 | 51 | 12 | 0.0 | 0.0 | 0.00 | 0.00 | 1.50 | 95 | 1010.0 |
| 20260506214535 | 51 | 12 | 0.0 | 0.0 | 0.00 | 0.00 | 1.50 | 95 | 1010.0 |
| 20260506214028 | 51 | 12 | 0.0 | 0.0 | 0.00 | 0.00 | 1.50 | 94 | 1010.0 |
| 20260506213521 | 51 | 12 | 0.0 | 0.0 | 0.00 | 0.00 | 1.50 | 94 | 1009.9 |
| 20260506213039 | 51 | 12 | 0.0 | 0.0 | 0.00 | 0.00 | 1.50 | 94 | 1009.9 |